Wind_Speed
9 9 8 9 9 8 9 9 8 7 7 7 6 5 5 5 4 4 4 5 5 5 5 5 4 4 4 4 4 4 3 3 3 4 5 5 5 6 6 6 6 6 6
10 10 9 10 10 9 9 9 8 7 7 7 7 7 6 5 5 5 5 6 6 6 6 5 5 5 5 5 6 6 5 4 5 5 5 6 7 7 7 7 7 7 7
11 10 10 9 10 10 9 9 9 8 8 8 8 7 7 6 6 7 6 7 7 7 7 6 6 6 6 7 7 7 7 6 6 7 7 7 8 9 8 8 8 9 8
12 11 11 10 9 9 9 9 10 8 8 8 8 8 7 7 8 8 8 8 8 8 7 6 7 7 8 7 7 7 7 7 8 8 8 9 9 10 10 9 9 9 8
12 12 12 11 10 9 9 9 10 9 8 9 8 9 9 9 9 9 9 9 8 8 7 7 8 8 8 8 8 8 9 9 9 10 10 10 10 10 10 10 10 9 9
13 13 13 12 10 10 10 9 9 10 9 9 9 10 10 10 10 10 10 10 10 9 8 8 8 8 9 10 9 10 10 11 11 11 11 11 11 11 11 10 10 11 10
14 13 13 12 10 11 11 11 10 11 11 11 11 11 11 12 12 12 11 10 10 10 10 10 10 10 11 11 10 11 12 12 12 12 12 12 12 12 12 12 12 12 13
14 14 14 13 13 13 13 12 12 12 12 12 12 12 12 13 13 12 11 11 11 11 11 11 12 12 12 12 12 12 12 13 13 13 13 13 14 14 14 14 14 14 14
16 16 15 14 14 13 13 13 13 12 12 12 13 13 13 13 14 14 13 13 12 12 12 13 14 13 13 13 12 13 13 13 13 13 14 14 15 15 15 15 15 15 15
17 17 17 17 17 15 13 14 14 14 13 13 14 14 14 15 15 15 15 14 14 14 14 15 15 15 14 14 13 13 14 14 14 14 15 15 16 16 16 16 16 16 16
19 19 18 18 17 17 17 16 14 14 14 14 15 15 15 16 16 16 16 16 16 16 16 16 16 16 16 15 15 15 15 14 15 14 15 15 16 16 16 16 17 17 18
20 20 20 19 18 17 17 17 16 16 15 15 16 16 16 17 17 17 17 17 17 17 17 17 17 17 17 17 16 16 16 16 16 16 16 16 16 16 17 17 18 18 18
19 20 21 21 19 18 18 17 17 17 17 17 17 17 17 17 17 17 18 18 18 18 18 18 19 18 18 18 18 18 18 17 17 17 17 17 17 18 18 18 18 19 19
21 21 21 21 21 20 19 19 19 18 18 18 18 18 19 19 19 19 19 19 19 19 19 20 20 20 20 20 19 19 19 18 18 18 17 17 18 19 19 19 19 19 20
23 22 22 22 21 21 20 20 20 21 20 20 20 20 20 20 20 20 20 19 19 19 20 20 20 21 21 20 20 20 19 18 19 18 18 18 18 19 20 21 20 20 21
25 25 24 23 22 22 22 21 21 22 21 21 21 21 21 21 20 20 20 19 19 19 19 20 20 20 20 19 19 19 18 18 18 18 18 19 19 20 20 20 21 21 21
26 26 26 24 24 23 23 24 23 23 23 22 22 21 21 21 21 20 20 21 20 20 20 19 19 19 19 19 19 19 19 19 19 19 20 20 20 21 20 20 20 21 22
26 25 26 26 26 25 25 25 24 24 24 23 23 23 22 23 23 22 22 22 21 21 21 20 20 19 19 19 20 20 20 20 20 21 21 21 21 21 21 22 22 22 23
26 27 28 28 27 27 27 26 25 26 26 24 24 24 24 24 24 23 23 22 22 22 21 21 21 20 20 20 21 22 21 21 21 21 21 22 21 21 22 22 23 23 24
29 29 29 30 29 28 29 27 26 27 27 26 26 25 25 25 24 24 24 23 22 23 23 22 22 21 21 21 21 21 22 22 22 22 22 23 23 23 23 23 24 24 25
31 31 31 31 31 30 29 28 27 28 28 28 27 27 26 25 25 24 24 24 24 24 23 23 23 22 23 23 23 23 23 22 23 23 23 24 25 25 25 26 26 26 26
33 33 32 32 31 31 30 31 30 29 30 30 29 27 27 26 26 26 25 25 25 25 25 25 24 24 24 24 25 25 25 24 24 24 24 25 26 27 27 27 27 27 28
35 34 34 33 33 33 32 31 31 31 31 32 30 29 28 28 27 27 27 26 26 26 26 26 26 25 25 25 25 25 26 26 26 25 25 25 26 27 27 28 29 29 28
35 35 35 34 34 33 32 32 31 32 32 32 31 30 29 29 29 29 28 27 27 26 26 25 25 26 25 24 24 25 25 25 25 26 26 26 27 27 28 28 30 30 29
36 36 35 35 35 34 33 32 32 33 33 33 32 31 31 31 31 30 29 28 27 27 26 25 25 26 25 25 25 25 26 26 26 26 27 27 28 28 28 29 29 29 29
37 37 36 36 35 35 34 34 34 33 33 33 33 34 33 33 32 31 30 29 29 28 27 26 26 26 26 26 26 26 27 27 27 28 28 28 28 29 29 29 29 29 29
Wind_Direction
333 336 341 343 344 347 346 345 341 340 342 345 339 331 327 326 329 333 328 326 321 313 303 302 301 302 304 305 305 308 312 323 324 325 325 323 321 322 323 316 312 309 310
317 325 328 331 332 334 336 338 334 327 330 335 340 332 323 324 322 321 318 317 314 308 300 293 294 296 301 303 301 305 310 312 310 313 314 315 318 315 314 312 311 310 312
309 313 317 319 323 324 325 331 329 323 324 325 328 329 321 315 314 314 312 313 313 306 302 291 291 288 292 295 297 298 300 303 305 309 307 309 312 312 309 309 309 309 308
305 306 308 310 314 316 318 326 325 320 321 322 321 320 323 314 313 311 306 305 305 301 296 292 293 296 298 295 297 300 296 297 299 306 309 309 308 311 310 307 311 315 315
300 299 300 304 303 308 315 319 321 319 320 319 315 312 316 319 314 310 305 298 297 295 291 287 286 292 296 295 297 300 298 295 297 301 304 305 306 308 309 306 309 314 315
296 293 291 294 296 301 303 305 308 310 313 313 312 312 316 319 316 312 304 296 291 289 288 290 289 290 295 300 300 299 296 295 295 298 298 300 301 304 305 304 309 310 309
293 293 294 293 295 297 295 295 300 302 304 306 307 308 311 313 312 311 308 301 295 292 289 289 290 292 294 296 296 295 295 296 295 296 297 299 301 302 300 299 302 305 307
288 290 293 292 292 293 292 291 293 295 298 301 302 304 307 307 308 309 309 304 301 296 294 292 292 291 291 289 291 290 291 295 297 297 296 296 297 299 300 301 302 303 304
282 285 289 289 289 284 286 289 289 290 292 295 298 301 304 306 305 305 306 304 302 300 298 297 296 294 291 289 289 292 292 293 295 297 296 295 296 297 299 301 302 302 303
281 283 285 286 287 285 284 284 284 286 290 294 295 300 303 303 303 302 304 304 300 297 297 298 297 295 294 295 291 292 294 292 291 293 293 293 295 295 296 299 301 304 303
277 280 282 282 283 285 284 283 283 284 288 292 293 297 300 302 302 298 297 297 296 295 296 296 295 292 291 291 292 290 291 292 292 292 292 292 293 295 295 296 297 299 301
277 279 278 278 281 283 284 283 282 283 284 287 289 292 296 297 297 295 294 294 294 293 293 293 293 291 288 287 289 289 289 290 291 291 293 293 293 293 294 294 295 296 298
279 278 277 276 278 280 281 281 280 282 283 285 289 292 296 296 295 294 292 291 291 290 289 289 290 288 286 287 288 288 288 287 288 289 290 290 290 290 292 292 293 294 296
278 275 276 276 278 279 277 276 277 280 282 285 288 290 293 293 291 291 290 288 286 284 285 287 287 287 285 285 286 287 287 286 288 288 288 289 290 291 292 292 293 294 296
273 273 275 275 276 276 276 274 273 276 279 281 284 288 290 291 291 291 289 286 285 283 285 287 288 288 285 283 283 286 285 286 286 286 286 288 291 293 294 293 293 294 296
271 272 274 274 275 276 276 275 273 274 276 278 281 283 286 288 289 290 289 289 288 286 288 287 289 288 287 287 287 284 284 285 286 287 288 288 290 292 295 296 294 295 297
270 271 272 273 271 274 275 276 273 273 275 277 279 279 282 285 287 287 288 288 287 289 288 287 289 288 287 287 289 286 283 282 282 286 288 289 288 290 291 292 295 296 298
269 272 273 272 272 272 274 274 273 273 272 274 277 278 280 282 283 284 285 286 288 288 286 286 286 286 286 288 287 285 283 283 284 286 288 290 290 291 290 290 292 294 296
269 271 272 271 270 273 274 270 269 271 271 271 274 277 279 280 282 283 284 284 286 285 284 283 285 284 284 286 286 284 284 285 285 285 286 289 291 293 292 292 293 294 295
269 269 270 270 270 271 271 269 268 268 269 270 272 273 276 279 281 281 282 282 282 283 283 283 283 283 283 282 282 283 282 284 285 285 285 287 289 290 292 293 295 296 296
268 269 270 271 270 272 273 271 270 269 271 272 270 271 273 276 278 280 280 281 281 281 283 283 282 282 281 280 280 281 281 281 282 282 283 285 287 289 290 292 295 296 296
267 267 268 268 269 271 273 273 273 272 271 270 270 270 272 274 276 277 278 280 280 280 281 280 280 280 280 282 282 281 282 281 281 281 283 285 286 288 290 291 293 294 295
266 267 267 267 267 268 269 271 272 271 271 270 270 272 272 273 274 274 275 277 278 279 281 281 280 280 281 282 283 283 284 284 283 282 284 285 286 288 290 291 293 293 293
266 266 266 266 266 267 267 268 269 270 270 269 270 271 272 273 275 276 275 275 274 277 280 281 281 281 281 282 282 283 282 283 284 283 284 284 285 287 290 292 295 294 292
265 265 265 266 266 267 266 266 267 267 268 268 269 271 272 274 276 276 277 276 275 275 278 279 279 279 280 281 281 281 282 281 283 285 285 285 285 286 289 291 291 292 293
265 264 263 263 264 265 265 265 265 266 266 267 269 270 271 273 273 273 276 276 274 274 276 277 277 278 278 279 279 280 280 281 283 285 287 286 285 286 288 290 292 291 292
Height
5913 5912 5911 5910 5910 5909 5908 5907 5906 5906 5905 5905 5904 5904 5904 5903 5903 5903 5903 5903 5903 5902 5902 5902 5902 5902 5902 5901 5901 5901 5901 5901 5901 5901 5901 5900 5900 5900 5899 5898 5898 5898 5897
5913 5912 5911 5910 5909 5909 5908 5907 5906 5906 5905 5905 5904 5904 5903 5903 5903 5903 5903 5902 5902 5902 5902 5901 5901 5901 5901 5901 5901 5901 5901 5901 5901 5901 5900 5900 5900 5899 5898 5898 5897 5896 5896
5911 5911 5910 5909 5909 5908 5907 5906 5906 5905 5904 5904 5904 5903 5903 5903 5903 5902 5902 5902 5901 5901 5901 5900 5900 5900 5900 5900 5900 5900 5900 5900 5900 5899 5899 5899 5898 5897 5897 5896 5896 5895 5894
5910 5909 5909 5908 5908 5907 5906 5905 5905 5904 5904 5903 5903 5902 5902 5902 5902 5901 5901 5900 5900 5900 5900 5899 5899 5899 5899 5899 5899 5899 5899 5899 5898 5898 5898 5897 5897 5896 5895 5895 5894 5893 5893
5909 5908 5907 5907 5906 5906 5905 5905 5904 5903 5903 5903 5902 5902 5901 5900 5900 5900 5899 5899 5899 5899 5898 5898 5898 5898 5898 5898 5897 5897 5897 5897 5897 5896 5896 5895 5895 5894 5894 5893 5892 5891 5890
5907 5906 5905 5904 5904 5904 5904 5904 5903 5902 5902 5901 5901 5900 5900 5899 5898 5898 5898 5897 5897 5897 5897 5896 5896 5896 5896 5896 5895 5895 5895 5895 5895 5894 5894 5893 5892 5892 5891 5890 5890 5889 5888
5904 5904 5903 5902 5902 5902 5902 5902 5901 5901 5900 5900 5899 5899 5898 5898 5897 5896 5896 5895 5895 5895 5894 5894 5894 5894 5894 5894 5893 5893 5893 5892 5892 5892 5891 5891 5890 5889 5889 5888 5887 5886 5886
5902 5901 5901 5900 5900 5900 5900 5900 5899 5899 5898 5898 5898 5897 5897 5896 5895 5894 5893 5893 5893 5892 5892 5892 5892 5892 5891 5891 5891 5891 5890 5890 5889 5889 5888 5888 5887 5886 5886 5885 5884 5883 5882
5900 5898 5898 5897 5896 5896 5896 5897 5897 5896 5896 5896 5895 5895 5894 5893 5893 5892 5891 5890 5890 5890 5889 5889 5889 5888 5888 5888 5888 5888 5887 5887 5886 5885 5885 5884 5884 5883 5882 5882 5881 5880 5879
5896 5896 5895 5895 5893 5892 5893 5893 5894 5893 5893 5893 5893 5892 5892 5891 5890 5889 5889 5888 5888 5887 5887 5886 5886 5885 5885 5884 5884 5884 5884 5883 5882 5882 5881 5881 5880 5880 5879 5878 5877 5876 5875
5893 5892 5892 5892 5892 5891 5890 5890 5890 5890 5890 5890 5890 5890 5889 5888 5888 5887 5886 5885 5885 5884 5883 5883 5882 5882 5881 5881 5880 5880 5879 5879 5878 5878 5877 5877 5876 5876 5875 5874 5873 5872 5871
5887 5888 5888 5887 5888 5888 5888 5887 5887 5887 5887 5887 5887 5887 5886 5885 5884 5883 5883 5882 5881 5880 5880 5879 5878 5878 5877 5877 5876 5876 5875 5875 5874 5874 5873 5873 5872 5871 5870 5870 5869 5868 5867
5882 5883 5884 5884 5884 5884 5884 5884 5883 5883 5883 5883 5883 5883 5882 5882 5881 5880 5879 5878 5877 5876 5876 5875 5874 5873 5873 5873 5872 5871 5871 5870 5869 5869 5868 5868 5867 5867 5866 5865 5864 5863 5862
5879 5879 5879 5879 5879 5879 5879 5879 5879 5879 5879 5879 5879 5879 5878 5877 5877 5876 5875 5874 5873 5872 5871 5870 5870 5869 5868 5868 5867 5866 5866 5865 5864 5864 5863 5863 5863 5862 5861 5860 5859 5858 5857
5874 5873 5874 5875 5875 5875 5874 5874 5875 5875 5875 5875 5875 5874 5874 5873 5872 5871 5869 5869 5868 5867 5866 5865 5865 5864 5863 5862 5861 5861 5860 5860 5859 5859 5859 5858 5858 5857 5856 5855 5854 5853 5852
5869 5869 5870 5870 5870 5870 5869 5869 5870 5870 5870 5870 5870 5869 5869 5868 5867 5866 5865 5864 5863 5862 5861 5861 5860 5859 5858 5857 5856 5856 5856 5856 5855 5854 5854 5854 5853 5852 5851 5850 5849 5847 5846
5863 5864 5865 5865 5865 5864 5864 5864 5864 5864 5865 5865 5864 5864 5863 5862 5862 5861 5860 5859 5858 5858 5857 5856 5855 5854 5853 5853 5852 5851 5851 5850 5850 5850 5849 5849 5848 5847 5846 5845 5843 5842 5840
5857 5858 5858 5858 5858 5858 5858 5858 5858 5858 5858 5859 5858 5858 5857 5857 5856 5855 5855 5854 5853 5852 5851 5850 5850 5849 5848 5848 5847 5846 5845 5845 5845 5844 5844 5843 5842 5842 5841 5839 5838 5836 5835
5850 5851 5851 5851 5852 5852 5851 5851 5851 5851 5852 5852 5852 5852 5852 5851 5850 5850 5849 5848 5847 5846 5846 5845 5845 5844 5843 5842 5841 5841 5840 5840 5839 5839 5838 5837 5837 5836 5835 5834 5832 5831 5829
5844 5844 5844 5844 5844 5844 5843 5843 5844 5844 5844 5845 5845 5845 5845 5845 5844 5843 5842 5842 5841 5840 5840 5839 5839 5838 5837 5836 5835 5835 5834 5834 5834 5833 5832 5831 5831 5830 5828 5827 5826 5824 5822
5835 5836 5836 5835 5836 5836 5835 5835 5836 5837 5837 5838 5838 5838 5838 5837 5837 5836 5836 5835 5835 5834 5834 5833 5832 5832 5832 5831 5830 5829 5828 5828 5827 5827 5826 5825 5824 5823 5821 5820 5819 5817 5815
5827 5827 5827 5828 5828 5828 5828 5829 5829 5830 5830 5830 5830 5829 5830 5830 5830 5829 5829 5828 5828 5828 5827 5827 5826 5826 5825 5825 5824 5823 5822 5821 5821 5820 5819 5818 5817 5816 5814 5812 5811 5809 5807
5817 5818 5818 5819 5819 5820 5820 5821 5821 5821 5821 5821 5822 5822 5821 5822 5822 5821 5821 5821 5821 5821 5820 5820 5819 5819 5818 5818 5817 5815 5815 5814 5813 5813 5812 5811 5810 5808 5807 5805 5803 5801 5799
5807 5808 5809 5810 5810 5811 5811 5812 5812 5812 5813 5812 5813 5813 5813 5814 5814 5813 5813 5813 5813 5813 5813 5812 5812 5811 5811 5811 5810 5808 5807 5807 5806 5805 5804 5804 5802 5801 5799 5798 5796 5794 5792
5797 5798 5799 5800 5801 5802 5802 5803 5803 5803 5804 5804 5804 5804 5805 5805 5805 5805 5805 5806 5806 5805 5805 5805 5804 5804 5803 5803 5802 5801 5801 5800 5799 5798 5797 5796 5795 5793 5792 5790 5788 5786 5784
5786 5787 5788 5789 5790 5791 5793 5793 5794 5794 5795 5795 5795 5796 5796 5797 5797 5797 5797 5798 5798 5797 5797 5797 5796 5796 5796 5795 5794 5794 5793 5792 5791 5790 5789 5788 5786 5785 5784 5782 5780 5778 5776